Regional Weather Roundup
Issued by NWS Cleveland, OH

Home | Current Version | Previous Version | Text Only | Print | Product List | Glossary Off
Versions: 1 2 3 4 5 6 7 8 9 10 11 12 13 14 15 16 17 18 19 20 21 22 23 24 25 26 27 28 29 30 31 32 33 34 35 36 37 38 39 40 41 42 43 44 45 46 47 48 49 50

000
ASUS41 KCLE 291202
RWRCLE
OHIO REGIONAL WEATHER ROUNDUP
NATIONAL WEATHER SERVICE CLEVELAND, OH
800 AM EDT SAT AUG 29 2015

NOTE: "FAIR" INDICATES FEW OR NO CLOUDS BELOW 12,000 FEET WITH NO
SIGNIFICANT WEATHER AND/OR OBSTRUCTIONS TO VISIBILITY.

OHZ001>008-015>018-024>027-034-035-043-044-291300-
   NORTHWEST OHIO

CITY           SKY/WX    TMP DP  RH WIND       PRES   REMARKS
DEFIANCE       CLOUDY    65  58  78 E3        30.13R
FINDLAY        CLOUDY    64  58  80 SE6       30.13R
TOLEDO EXPRESS CLOUDY    60  58  92 CALM      30.14R
TOLEDO EXEC    CLOUDY    62  57  83 SE3       30.15R
LIMA           CLOUDY    65  57  75 SE8       30.14R
$$

OHZ009>014-019>023-028>033-038-089-291300-
   NORTHEAST OHIO

CITY           SKY/WX    TMP DP  RH WIND       PRES   REMARKS
CLE-HOPKINS    CLOUDY    60  57  89 SW3       30.18R
CLE-LAKEFRONT  CLOUDY    64  56  75 SE9       30.15R
CUY CO. ARPT   MOSUNNY   66  57  72 S9        30.17R
LORAIN-ELYRIA  PTSUNNY   60  57  89 S5        30.17R FOG
ASHTABULA      CLOUDY    57  56  96 SE3       30.19R
AKRON-CANTON   PTSUNNY   61  56  83 S3        30.19R
WOOSTER        CLOUDY    55  53  93 CALM      30.19R FOG
MANSFIELD      CLOUDY    62  57  83 SE6       30.17R
YOUNGSTOWN     PTSUNNY   55  53  93 SE3       30.19R
$$

OHZ042-051>053-060>062-070>072-077>081-291300-
  SOUTHWEST OHIO

CITY           SKY/WX    TMP DP  RH WIND       PRES   REMARKS
CINC-COVINGTON MOCLDY    68  62  81 S9        30.14R
CINC-LUNKEN    MOSUNNY   61  61 100 CALM      30.15R
HAMILTON       MOCLDY    66  62  87 E3        30.14R
DAYTON         CLOUDY    64  60  87 SE6       30.15R
WRIGHT-PAT AFB CLOUDY    63  59  86 SE1       30.14R
DAYTON GENERAL PTSUNNY   66  58  75 S8        30.14R
WILMINGTON     MOSUNNY   66  58  75 S7        30.15R
$$

OHZ036-037-039>041-045>050-054>059-063>069-073>076-082>088-291300-
  CENTRAL AND SOUTHEAST OHIO

CITY           SKY/WX    TMP DP  RH WIND       PRES   REMARKS
COLUMBUS       PTSUNNY   64  58  80 CALM      30.15R
OSU AIRPORT    PTSUNNY   63  59  87 CALM      30.15S
BOLTON FIELD   MOSUNNY   61  61 100 CALM      30.16S
RICKENBACK AFB PTSUNNY   58  57  94 CALM      30.15S
NEWARK         MOSUNNY   58  56  93 CALM      30.17R
MARION         PTSUNNY   61  56  83 SE3       30.16R
LANCASTER      MOSUNNY   58  56  93 CALM      30.16S FOG
ZANESVILLE     MOSUNNY   55  52  89 CALM      30.18R
NEW PHILLY     CLOUDY    56  54  93 CALM      30.19R
$$


USA.gov is the U.S. government's official web portal to all federal, state and local government web resources and services.